GW4372 Weather Reports


Display with metric or nautical units.
time (UTC)temp
F
wind
direction
speed
MPH
gust
MPH
rain 1hr
in
rain 24hr
in
rain mn
in
humidity
%
barometer
mb
20260504180529 85 183 2.0 4.0 0.00 0.00 0.00 60 1013.2
20260504180028 82 175 4.0 6.0 0.00 0.00 0.00 63 1013.2
20260504175525 84 157 2.0 7.0 0.00 0.00 0.00 61 1013.3
20260504175022 84 162 3.0 8.0 0.00 0.00 0.00 61 1013.1
20260504174519 84 91 6.0 8.0 0.00 0.00 0.00 61 1013.2
20260504174016 84 144 2.0 6.0 0.00 0.00 0.00 60 1013.5
20260504173513 85 143 4.0 7.0 0.00 0.00 0.00 58 1013.4
20260504173011 85 185 0.0 4.0 0.00 0.00 0.00 62 1013.6
20260504172506 85 181 0.0 2.0 0.00 0.00 0.00 61 1013.7
20260504172003 84 87 2.0 4.0 0.00 0.00 0.00 61 1013.7
20260504171500 84 138 2.0 8.0 0.00 0.00 0.00 61 1013.9
20260504170957 83 43 4.0 6.0 0.00 0.00 0.00 61 1013.8
20260504170453 82 156 1.0 7.0 0.00 0.00 0.00 62 1013.8
20260504160413 80 28 2.0 8.0 0.00 0.00 0.00 68 1014.7
20260504150837 78 13 4.0 8.0 0.00 0.00 0.00 74 1015.1
20260504150333 78 7 5.0 8.0 0.00 0.00 0.00 73 1015.2
20260504141303 77 174 1.0 2.0 0.00 0.00 0.00 76 1014.5
20260504140800 76 39 9.0 10.0 0.00 0.00 0.00 77 1014.6
20260504140255 76 233 1.0 4.0 0.00 0.00 0.00 78 1014.6
20260504130724 73 88 3.0 4.0 0.00 0.00 0.00 82 1014.2
20260504130220 73 202 2.0 7.0 0.00 0.00 0.00 82 1014.2
20260504120144 69 90 2.0 3.0 0.00 0.00 0.00 89 1013.9
20260504110612 68 117 2.0 3.0 0.00 0.00 0.00 92 1013.1
20260504110108 68 76 2.0 3.0 0.00 0.00 0.00 92 1013.2
20260504100534 68 159 2.0 2.0 0.00 0.00 0.00 96 1012.7
20260504081927 68 174 0.0 0.0 0.00 0.00 0.00 97 1012.6
20260504081424 68 174 0.0 0.0 0.00 0.00 0.00 96 1012.8
20260504080920 68 177 0.0 0.0 0.00 0.00 0.00 96 1013.2
20260504080417 69 173 0.0 0.0 0.00 0.00 0.00 95 1013.1
20260504070345 68 177 0.0 0.0 0.00 0.00 0.00 97 1013.4
20260504050732 68 170 1.0 2.0 0.00 0.00 0.00 99 1014.1
20260504050230 68 143 0.0 0.0 0.00 0.00 0.00 99 1014.4
20260504045727 68 175 0.0 0.0 0.00 0.00 0.00 99 1014.5
20260504045227 68 181 0.0 0.0 0.00 0.00 0.00 99 1014.7
20260504044725 68 184 0.0 0.0 0.00 0.00 0.00 99 1014.7
20260504044222 68 183 0.0 0.0 0.00 0.00 0.00 99 1014.6
20260504043719 68 175 0.0 0.0 0.00 0.00 0.00 99 1014.5
20260504043215 68 180 0.0 0.0 0.00 0.00 0.00 99 1014.6
20260504042713 68 182 0.0 0.0 0.00 0.00 0.00 99 1014.4
20260504042209 68 173 0.0 0.0 0.00 0.00 0.00 99 1014.5
20260504041705 68 171 0.0 0.0 0.00 0.00 0.00 99 1014.3
20260504041201 68 173 0.0 0.0 0.00 0.00 0.00 99 1014.4
20260504040658 68 157 0.0 0.0 0.00 0.00 0.00 99 1014.6
20260504040155 68 179 0.0 0.0 0.00 0.00 0.00 99 1014.6
20260504035652 68 177 0.0 0.0 0.00 0.09 0.09 99 1014.5
20260504035149 68 174 0.0 0.0 0.00 0.09 0.09 99 1014.6
20260504034647 68 176 0.0 0.0 0.00 0.09 0.09 99 1014.8
20260504034143 68 175 0.0 0.0 0.00 0.09 0.09 98 1014.5
20260504033641 68 177 0.0 0.0 0.00 0.09 0.09 98 1014.8
20260504033138 68 175 0.0 0.0 0.00 0.09 0.09 98 1014.7
20260504032635 68 151 0.0 1.0 0.00 0.09 0.09 97 1014.5
20260504032132 68 167 0.0 0.0 0.00 0.09 0.09 97 1014.4
20260504031629 69 178 0.0 0.0 0.00 0.09 0.09 96 1014.8
20260504031125 69 170 1.0 1.0 0.00 0.09 0.09 95 1014.5
20260504030622 70 137 2.0 3.0 0.07 0.09 0.09 94 1014.8
20260504030119 70 179 0.0 0.0 0.00 0.08 0.08 92 1014.7
20260504025616 70 190 0.0 0.0 0.00 0.08 0.08 92 1015.2
20260504025113 70 166 0.0 1.0 0.00 0.08 0.08 92 1015.2
20260504024610 70 147 1.0 1.0 0.00 0.08 0.08 92 1015.1
20260504024107 70 139 1.0 2.0 0.00 0.08 0.08 92 1015.1
20260504023603 70 174 0.0 1.0 0.00 0.08 0.08 92 1015.2
20260504023059 70 168 0.0 1.0 0.00 0.08 0.08 92 1015.2
20260504022555 70 159 1.0 1.0 0.00 0.08 0.08 92 1015.1
20260504022051 70 61 2.0 3.0 0.00 0.08 0.08 92 1015.1
20260504021549 70 169 0.0 1.0 0.00 0.08 0.08 91 1015.1
20260504021046 70 174 0.0 0.0 0.00 0.08 0.08 91 1014.7
20260504020543 70 169 0.0 0.0 0.00 0.08 0.08 91 1015.0
20260504020039 70 131 1.0 1.0 0.00 0.08 0.08 91 1014.8
20260504015536 70 170 1.0 1.0 0.00 0.08 0.08 91 1014.9
20260504015032 70 163 0.0 0.0 0.00 0.08 0.08 91 1014.8
20260504014528 70 172 0.0 0.0 0.00 0.08 0.08 91 1014.7
20260504014025 70 165 0.0 2.0 0.00 0.08 0.08 90 1014.7
20260504013523 70 165 0.0 1.0 0.00 0.08 0.08 90 1014.5
20260504013020 70 157 1.0 3.0 0.00 0.08 0.08 90 1014.5
20260504012517 70 109 2.0 3.0 0.00 0.08 0.08 91 1014.4
20260504012015 70 172 0.0 1.0 0.00 0.08 0.08 91 1014.3
20260504011511 70 171 0.0 0.0 0.00 0.08 0.08 91 1014.3
20260504011008 70 38 2.0 3.0 0.00 0.08 0.08 91 1014.3
20260504010503 70 124 2.0 4.0 0.00 0.08 0.08 91 1014.3
20260504005959 70 162 1.0 2.0 0.00 0.08 0.08 91 1014.3
20260504005456 70 35 1.0 2.0 0.00 0.08 0.08 91 1014.0
20260504004954 70 154 0.0 2.0 0.00 0.08 0.08 91 1014.0
20260504004451 70 162 0.0 1.0 0.00 0.08 0.08 92 1014.1
20260504003948 70 164 0.0 1.0 0.00 0.08 0.08 92 1013.9
20260504003444 70 187 0.0 1.0 0.00 0.08 0.08 92 1014.1
20260504002941 70 158 1.0 3.0 0.00 0.08 0.08 92 1014.1
20260504002438 70 159 1.0 2.0 0.00 0.08 0.08 92 1013.9
20260504001936 71 168 0.0 2.0 0.00 0.08 0.08 92 1014.0
20260504001433 71 170 0.0 1.0 0.00 0.08 0.08 91 1014.0
20260504000929 71 173 0.0 1.0 0.00 0.08 0.08 91 1013.8
20260504000426 71 140 2.0 4.0 0.00 0.08 0.08 92 1013.9
20260503235924 71 182 0.0 2.0 0.00 0.08 0.08 92 1013.9
20260503235422 71 177 0.0 1.0 0.00 0.08 0.08 91 1013.5
20260503234919 71 125 1.0 2.0 0.00 0.08 0.08 91 1013.5
20260503234416 71 253 1.0 2.0 0.00 0.08 0.08 91 1013.7
20260503233914 71 170 0.0 1.0 0.00 0.08 0.08 91 1013.4
20260503233410 71 162 1.0 3.0 0.00 0.08 0.08 91 1013.5
20260503232907 71 34 1.0 6.0 0.00 0.08 0.08 90 1013.7
20260503232404 71 73 2.0 4.0 0.00 0.08 0.08 90 1013.6
20260503231902 71 99 3.0 4.0 0.00 0.08 0.08 90 1013.5
20260503231359 71 115 2.0 3.0 0.00 0.08 0.08 90 1013.6
20260503230855 71 141 2.0 2.0 0.00 0.08 0.08 90 1013.6
20260503230352 71 190 1.0 2.0 0.00 0.08 0.08 90 1013.5
20260503225850 71 46 3.0 6.0 0.00 0.08 0.08 90 1013.4
20260503225345 71 64 6.0 7.0 0.00 0.08 0.08 91 1013.4
20260503224842 71 81 1.0 4.0 0.00 0.08 0.08 91 1013.3
20260503224339 71 359 2.0 3.0 0.00 0.08 0.08 92 1013.2
20260503223837 71 131 1.0 2.0 0.00 0.08 0.08 92 1013.2
20260503223334 71 103 2.0 7.0 0.00 0.08 0.08 93 1013.3
20260503222830 71 139 2.0 3.0 0.00 0.08 0.08 94 1013.4
20260503222328 71 170 1.0 2.0 0.00 0.08 0.08 94 1013.1
20260503221826 70 61 2.0 4.0 0.00 0.08 0.08 94 1013.2
20260503221325 70 113 1.0 2.0 0.00 0.08 0.08 94 1013.3
20260503220820 71 112 2.0 4.0 0.00 0.08 0.08 93 1013.3
20260503220317 71 150 1.0 4.0 0.00 0.08 0.08 93 1013.3
20260503215814 71 27 6.0 7.0 0.00 0.08 0.08 93 1013.4
20260503215311 71 12 4.0 6.0 0.00 0.08 0.08 93 1013.4
20260503214809 71 64 2.0 3.0 0.00 0.08 0.08 93 1013.5
20260503214306 71 70 1.0 2.0 0.00 0.08 0.08 93 1013.3
20260503213804 70 34 2.0 4.0 0.00 0.08 0.08 94 1013.4
20260503213301 70 160 1.0 1.0 0.00 0.08 0.08 95 1013.6
20260503212758 71 42 5.0 6.0 0.00 0.08 0.08 94 1013.7
20260503212255 71 134 1.0 3.0 0.00 0.08 0.08 94 1013.5
20260503211753 71 120 1.0 3.0 0.00 0.08 0.08 93 1013.6
20260503211249 71 122 2.0 3.0 0.00 0.08 0.08 92 1013.9
20260503210744 71 173 1.0 3.0 0.00 0.08 0.08 91 1013.8
20260503210242 71 173 1.0 2.0 0.00 0.08 0.08 91 1013.8
20260503205742 72 137 2.0 4.0 0.00 0.08 0.08 90 1013.8
20260503205239 72 30 5.0 7.0 0.00 0.08 0.08 90 1013.5
20260503204735 72 116 3.0 4.0 0.00 0.08 0.08 90 1013.8
20260503204233 72 117 2.0 6.0 0.00 0.08 0.08 90 1013.7
20260503203730 72 51 2.0 3.0 0.00 0.08 0.08 90 1013.7
20260503203228 72 38 4.0 6.0 0.00 0.08 0.08 90 1013.8
20260503202725 72 156 2.0 6.0 0.00 0.08 0.08 90 1013.7
20260503202222 72 46 3.0 6.0 0.00 0.08 0.08 89 1013.6
20260503201720 73 9 6.0 7.0 0.00 0.08 0.08 89 1013.5
20260503201217 72 25 3.0 4.0 0.00 0.08 0.08 89 1013.7
20260503200713 72 27 6.0 8.0 0.00 0.08 0.08 89 1013.7
20260503200210 73 21 6.0 7.0 0.00 0.08 0.08 88 1013.9
20260503195707 73 168 1.0 8.0 0.00 0.08 0.08 89 1013.8
20260503195204 72 75 4.0 6.0 0.00 0.08 0.08 89 1014.0
20260503194701 71 359 5.0 9.0 0.00 0.08 0.08 90 1014.1
20260503194156 71 50 6.0 9.0 0.00 0.08 0.08 89 1014.1
20260503193653 72 63 2.0 2.0 0.00 0.08 0.08 89 1014.3
20260503193149 72 36 4.0 7.0 0.00 0.08 0.08 89 1014.4
20260503192645 72 14 4.0 6.0 0.00 0.08 0.08 88 1014.1
20260503192140 73 9 4.0 4.0 0.00 0.08 0.08 88 1014.4
20260503191637 72 37 3.0 11.0 0.00 0.08 0.08 88 1014.2
20260503191135 72 162 1.0 8.0 0.00 0.08 0.08 89 1014.1
20260503190631 72 38 3.0 4.0 0.00 0.08 0.08 89 1014.3
20260503190128 72 77 4.0 7.0 0.00 0.08 0.08 89 1014.6
20260503185625 72 62 6.0 11.0 0.00 0.08 0.08 89 1014.6
20260503185120 72 56 3.0 10.0 0.00 0.08 0.08 90 1014.8
20260503184615 72 21 6.0 9.0 0.00 0.08 0.08 89 1014.9
20260503184112 73 14 5.0 7.0 0.00 0.08 0.08 88 1014.9
20260503183609 74 33 2.0 6.0 0.00 0.08 0.08 87 1014.8
20260503183106 73 150 0.0 6.0 0.00 0.08 0.08 88 1014.8
20260503182605 73 13 6.0 7.0 0.00 0.08 0.08 88 1014.8
20260503182102 72 184 0.0 1.0 0.00 0.08 0.08 90 1014.6
20260503181559 72 34 3.0 4.0 0.00 0.08 0.08 91 1014.8
20260503181055 72 22 2.0 6.0 0.00 0.08 0.08 91 1014.5